Regional Weather Roundup
Issued by NWS Charleston, SC

Current Version | Previous Version | Graphics & Text | Print | Product List | Glossary On
Versions: 1 2 3 4 5 6 7 8 9 10 11 12 13 14 15 16 17 18 19 20 21 22 23 24 25 26 27 28 29 30 31 32 33 34 35 36 37 38 39 40 41 42 43 44 45 46 47 48 49 50
000 ASUS42 KCHS 010711 RWRCHS REGIONAL WEATHER ROUNDUP NATIONAL WEATHER SERVICE CHARLESTON SC 200 AM EST SUN FEB 01 2015 NOTE: "FAIR" INDICATES FEW OR NO CLOUDS BELOW 12,000 FEET WITH NO SIGNIFICANT WEATHER AND/OR OBSTRUCTIONS TO VISIBILITY. NOT ALL STATIONS ARE QUALITY CONTROLLED BY THE NATIONAL WEATHER SERVICE. USE DATA WITH CAUTION...ESPECIALLY DEWPOINT OBSERVATIONS. SCZ027-030-031-034>040-042>050-010800- ...SOUTHEAST SOUTH CAROLINA... CITY SKY/WX TMP DP RH WIND PRES REMARKS N CHARLESTON CLOUDY 41 31 67 CALM 30.31F WATERFRONT PRK NOT AVBL MOUNT PLEASANT FAIR 36 32 87 CALM 30.32S PINOPOLIS N/A 45 28 53 VRB2 30.22F MONCKS CORNER FAIR 37 32 81 CALM 30.31F SUMMERVILLE NOT AVBL BEAUFORT MCAS PTCLDY 38 34 85 CALM 30.31F BEAUFORT ARPT FAIR 39 36 87 CALM 30.30F HILTON HEAD IS CLEAR 37 34 87 CALM 30.31F WALTERBORO CLOUDY 37 32 81 CALM 30.32F ALLENDALE FAIR 37 28 70 CALM 30.30S ...SOUTHERN MIDLANDS AND PEE DEE... CITY SKY/WX TMP DP RH WIND PRES REMARKS GEORGETOWN NOT AVBL KINGSTREE NOT AVBL ORANGEBURG CLOUDY 40 25 55 S3 30.30F BARNWELL FAIR 37 30 75 CALM 30.31S AIKEN FAIR 41 25 52 CALM 30.32S MANNING FAIR 43 32 65 CALM 30.31F COLUMBIA CLOUDY 40 28 62 CALM 30.30R SUMTER CLOUDY 38 24 58 S2 30.29S FLORENCE CLOUDY 38 26 62 S5 30.30S WCI 34 MYRTLE BEACH MOCLDY 39 27 60 SW6 30.34S WCI 35 N MYRTLE BEACH PTCLDY 33 30 88 CALM 30.31S $$ GAZ063-065-086>088-099>101-113>116-118-119-134>141-150-010800- ...SOUTHEAST GEORGIA... CITY SKY/WX TMP DP RH WIND PRES REMARKS SAVANNAH ARPT PTCLDY 38 33 82 CALM 30.30F HUNTER AAF MOCLDY 39 35 87 CALM 30.28F FORT STEWART CLOUDY 35 32 89 CALM 30.28F STATESBORO MOCLDY 35 33 92 CALM 30.29F SYLVANIA PTSUNNY 38 35 89 CALM 30.30F CLAXTON FAIR 36 32 87 CALM 30.30F ...CSRA...CENTRAL AND FAR SOUTHEAST GEORGIA... CITY SKY/WX TMP DP RH WIND PRES REMARKS THOMSON CLOUDY 46 30 54 CALM 30.33S AUGUSTA-BUSH CLOUDY 38 26 62 CALM 30.31S AUGUSTA-DANIEL CLOUDY 45 20 36 S6 30.30S SWAINSBORO FAIR 43 27 52 CALM 30.30R VIDALIA MOCLDY 39 34 81 CALM 30.29F EASTMAN FAIR 37 34 90 E3 30.30F HAZLEHURST FAIR 43 37 79 SE3 30.27F ALMA MOCLDY 42 35 76 E3 30.28F WAYCROSS MOCLDY 44 40 86 CALM 30.28S JESUP FAIR 36 36 100 CALM 30.29S BAXLEY FAIR 41 36 81 CALM 30.28F BRUNSWICK CLEAR 36 34 93 CALM 30.29F SAINT SIMONS CLEAR 48 43 82 E6 30.28F $$ SCZ027-028-034-036>038-045-046-048>050-GAZ119-141-010800- ...LAKE AND SUPPLEMENTAL COASTAL OBSERVATIONS... STATION/POSITION TIME TEMP WIND PRES WAVE SWELL AIR SEA DIR/SP/G HT/PER HT/PER/DIR (UTC) (F) (DEG/KT/KT) (MB) (FT/S) (FT/S/D) UPR LAKE MARION NOT AVBL WINYAH BAY NOT AVBL LAKE MURRAY 0600 48 200/ 9/ 10 1025.1F ACE BASIN NERRS NOT AVBL FORT PULASKI 0600 49 51 120/ 3/ 3 1026.7F SAPELO ISLAND 0600 36 60/ 3 1026.0S $$ ANZ835-935-AMZ111-154-330-350-352-354-370-450-454-472-010800- ...C-MAN AND BUOY OBSERVATIONS... STATION/POSITION TIME TEMP WIND PRES WAVE SWELL AIR SEA DIR/SP/G HT/PER HT/PER/DIR (UTC) (F) (DEG/KT/KT) (MB) (FT/S) (FT/S/D) BUOY 41004 0650 55 69 160/ 2/ 6 1026.3F 4/10 3/10 BUOY 41008 0650 54 53 100/ 8/ 8 1025.6F 3/ 9 3/ 80/ 9 FOLLY BEACH CMAN 0600 50 180/ 6/ 6 1027.1F CAPERS NEARSHORE 0600 50 220/ 8/ 8 N/A FRIPP NEARSHORE 0600 51 150/ 6/ 8 1025.8 STATION/POSITION TIME TEMP WIND PRES WAVE SWELL AIR SEA DIR/SP/G HT/PER HT/PER/DIR (UTC) (F) (DEG/KT/KT) (MB) (FT/S) (FT/S/D) 5E ST. MARYS GA 0621 56 N/A 3/ 9 FRYING PAN BUOY 0650 51 63 250/ 4/ 6 1027.3F 3/11 2/ 40/11 BUOY 41025 0650 48 71 290/ 12/ 16 1026.0R 6/11 5/ 50/11 CAPE LOOKOUT NC 0600 45 250/ 5/ 6 1026.1F BUOY 41002 0650 56 70 10/ 6/ 12 1026.6R 10/11 10/11 BUOY 41010 0620 63 73 80/ 12/ 17 1025.2F ST AUGUSTINE FL 0700 53 330/ 4/ 4 1025.1F $$

USA.gov is the U.S. government's official web portal to all federal, state and local government web resources and services.